Weather History for Punta Gorda, FL

Change the Weather History Date:

Saturday, November 12, 2011

  Actual Average Record
Temperature  
Mean Temperature 64 °F -  
Max Temperature 79 °F 78 °F 88 °F (2008)
Min Temperature 48 °F 58 °F 48 °F (2011)
Degree Days  
Heating Degree Days 2    
Growing Degree Days 14 (Base 50)    
Moisture  
Dew Point 51 °F    
Average Humidity 70    
Maximum Humidity 90    
Minimum Humidity 39    
Precipitation  
Precipitation 0.00 in - - ()
Sea Level Pressure  
Sea Level Pressure 30.24 in    
Wind  
Wind Speed 7 mph (ENE)    
Max Wind Speed 14 mph    
Max Gust Speed 21 mph    
Visibility 10 miles    
Events      
Averages and records for this station are not official NWS values.
T = Trace of Precipitation, MM = Missing Value Source: NWS Daily Summary

Daily Weather History Graph

Daily Weather History Graph

Search for Another Location

Airport:

Trip Planner

Search our weather history database for the weather conditions in past years. The results will help you decide how hot, cold, wet, or windy it might be!

Date:

Astronomy

Nov. 12, 2011 Rise Set
Actual Time 6:45 AM EST 5:38 PM EST
Civil Twilight 6:20 AM EST 6:02 PM EST
Nautical Twilight 5:52 AM EST 6:30 PM EST
Astronomical Twilight 5:25 AM EST 6:58 PM EST
Moon 7:03 PM EST (11/12) 8:16 AM EST (11/12)
Length of Visible Light 11h 42m
Length of Day
10h 53m
Full, 97% of the Moon is Illuminated
Nov 12
Full
Nov 18
Last Quarter
Nov 25
New
Dec 2
First Quarter
Dec 10
Full

Hourly Weather History & Observations

Time (EST) Temp. Dew Point Humidity Pressure Visibility Wind Dir Wind Speed Gust Speed Precip Events Conditions
12:53 AM 51.1 °F 46.9 °F 86% 30.23 in 10.0 mi NNE 6.9 mph - N/A   Clear
1:53 AM 50.0 °F 46.0 °F 86% 30.22 in 10.0 mi NE 5.8 mph - N/A   Clear
2:53 AM 48.9 °F 46.0 °F 90% 30.21 in 10.0 mi NNE 4.6 mph - N/A   Clear
3:53 AM 48.9 °F 46.0 °F 90% 30.22 in 10.0 mi NE 5.8 mph - N/A   Clear
4:53 AM 48.9 °F 45.0 °F 86% 30.23 in 10.0 mi NE 6.9 mph - N/A   Clear
5:53 AM 48.9 °F 45.0 °F 86% 30.24 in 10.0 mi NE 4.6 mph - N/A   Clear
6:53 AM 48.9 °F 45.0 °F 86% 30.25 in 10.0 mi NE 5.8 mph - N/A   Clear
8:53 AM 61.0 °F 51.1 °F 70% 30.27 in 10.0 mi NE 9.2 mph - N/A   Clear
10:53 AM 73.0 °F 54.0 °F 51% 30.27 in 10.0 mi East 13.8 mph - N/A   Clear
11:53 AM 75.0 °F 55.9 °F 51% 30.25 in 10.0 mi ENE 12.7 mph - N/A   Clear
12:53 PM 77.0 °F 54.0 °F 45% 30.22 in 10.0 mi East 11.5 mph 19.6 mph N/A   Clear
1:53 PM 78.1 °F 53.1 °F 42% 30.20 in 10.0 mi ENE 11.5 mph 20.7 mph N/A   Clear
2:53 PM 79.0 °F 52.0 °F 39% 30.19 in 10.0 mi East 13.8 mph 19.6 mph N/A   Clear
3:53 PM 78.1 °F 53.1 °F 42% 30.19 in 10.0 mi East 12.7 mph 17.3 mph N/A   Partly Cloudy
4:53 PM 75.0 °F 54.0 °F 48% 30.21 in 10.0 mi East 9.2 mph - N/A   Partly Cloudy
5:53 PM 69.1 °F 54.0 °F 58% 30.22 in 10.0 mi ESE 5.8 mph - N/A   Clear
6:53 PM 66.9 °F 54.0 °F 63% 30.24 in 10.0 mi ESE 6.9 mph - N/A   Clear
7:53 PM 63.0 °F 55.0 °F 75% 30.26 in 10.0 mi East 5.8 mph - N/A   Clear
8:53 PM 59.0 °F 55.0 °F 87% 30.27 in 10.0 mi ENE 6.9 mph - N/A   Clear
9:53 PM 61.0 °F 55.0 °F 81% 30.28 in 10.0 mi ESE 5.8 mph - N/A   Clear
10:53 PM 57.9 °F 54.0 °F 87% 30.27 in 10.0 mi ENE 3.5 mph - N/A   Clear
11:53 PM 55.9 °F 53.1 °F 90% 30.25 in 10.0 mi NE 4.6 mph - N/A   Clear